Chattahoochee River Whitewater Weather Center

Moon Phase Calendar



Online Cameras

 


      

Current Conditions in Phenix City
5/26/2022 5:41:10 PM

70°F
Feels Like 71
Clouds
Humidity
96%
Pressure
29.94"
Wind
8 mph (SSE)
Dew Point
69°F
UV Index
0/10 (Low)
Visibility
6 mi

Hourly Forecast

Date & Time Thu, May 26
5:00 PM
Thu, May 26
6:00 PM
Thu, May 26
7:00 PM
Thu, May 26
8:00 PM
Thu, May 26
9:00 PM
Thu, May 26
10:00 PM
Thu, May 26
11:00 PM
Fri, May 27
12:00 AM
Fri, May 27
1:00 AM
Fri, May 27
2:00 AM
Fri, May 27
3:00 AM
Fri, May 27
4:00 AM
Fri, May 27
5:00 AM
Fri, May 27
6:00 AM
Fri, May 27
7:00 AM
Fri, May 27
8:00 AM
Fri, May 27
9:00 AM
Fri, May 27
10:00 AM
Fri, May 27
11:00 AM
Fri, May 27
12:00 PM
Fri, May 27
1:00 PM
Fri, May 27
2:00 PM
Fri, May 27
3:00 PM
Fri, May 27
4:00 PM
Fri, May 27
5:00 PM
Fri, May 27
6:00 PM
Fri, May 27
7:00 PM
Fri, May 27
8:00 PM
Fri, May 27
9:00 PM
Fri, May 27
10:00 PM
Fri, May 27
11:00 PM
Sat, May 28
12:00 AM
Sat, May 28
1:00 AM
Sat, May 28
2:00 AM
Sat, May 28
3:00 AM
Sat, May 28
4:00 AM
Sat, May 28
5:00 AM
Sat, May 28
6:00 AM
Sat, May 28
7:00 AM
Sat, May 28
8:00 AM
Sat, May 28
9:00 AM
Sat, May 28
10:00 AM
Sat, May 28
11:00 AM
Sat, May 28
12:00 PM
Sat, May 28
1:00 PM
Sat, May 28
2:00 PM
Sat, May 28
3:00 PM
Sat, May 28
4:00 PM
Condition
Rain

Clouds

Clouds

Clouds

Rain

Rain

Rain

Clouds

Clouds

Clouds

Clouds

Clouds

Clouds

Clouds

Clouds

Clouds

Clouds

Clouds

Clear

Clear

Clear

Clear

Clear

Clear

Clear

Clear

Clear

Clear

Clear

Clear

Clear

Clear

Clear

Clear

Clear

Clear

Clear

Clear

Clear

Clear

Clear

Clear

Clear

Clear

Clear

Clear

Clear

Clear
Temperature 71°F70°F69°F68°F68°F67°F66°F66°F67°F67°F67°F67°F67°F65°F64°F67°F70°F74°F77°F80°F81°F82°F82°F81°F80°F79°F77°F72°F69°F67°F66°F65°F65°F64°F63°F62°F61°F61°F61°F64°F69°F73°F76°F79°F82°F84°F85°F85°F
Feels Like 72°F71°F70°F69°F69°F68°F66°F67°F68°F68°F68°F68°F68°F66°F65°F67°F70°F74°F77°F80°F82°F82°F82°F81°F80°F79°F77°F72°F69°F67°F66°F65°F65°F64°F63°F62°F61°F61°F61°F64°F69°F73°F76°F79°F82°F84°F84°F84°F
Cloudiness 52%40%52%64%76%88%100%100%100%99%93%92%92%89%81%73%27%13%9%7%5%4%0%0%0%0%0%0%0%0%0%0%0%0%0%0%0%0%0%0%0%0%0%0%0%0%0%0%
Visibility 4 mi2 mi1 mi3 mi1 mi6 mi6 mi4 mi5 mi2 mi6 mi6 mi6 mi6 mi6 mi6 mi6 mi6 mi6 mi6 mi6 mi6 mi6 mi6 mi6 mi6 mi6 mi6 mi6 mi6 mi6 mi6 mi6 mi6 mi6 mi6 mi6 mi6 mi6 mi6 mi6 mi6 mi6 mi6 mi6 mi6 mi6 mi6 mi
Precipitation 99%79%80%80%89%89%89%89%89%89%0%0%0%0%0%0%0%0%0%0%0%0%0%0%0%0%0%0%0%0%0%0%0%0%0%0%0%0%0%0%0%0%0%0%0%0%0%0%
Humidity 95%96%96%97%98%99%99%99%99%99%98%96%95%97%99%97%88%75%60%53%49%45%39%38%42%48%55%66%71%72%75%79%80%80%83%87%89%91%90%81%71%62%55%50%45%42%40%39%
Dew Point 69°F69°F68°F67°F67°F67°F65°F66°F66°F66°F66°F65°F65°F64°F63°F65°F66°F65°F62°F61°F60°F58°F55°F53°F55°F57°F59°F60°F58°F58°F58°F58°F58°F58°F58°F58°F58°F57°F57°F58°F59°F59°F59°F59°F58°F58°F58°F57°F
Pressure 29.94"29.94"29.94"29.94"29.94"29.97"29.97"29.97"29.94"29.94"29.91"29.91"29.91"29.91"29.91"29.94"29.94"29.94"29.91"29.91"29.91"29.91"29.88"29.88"29.88"29.88"29.88"29.88"29.88"29.91"29.91"29.91"29.91"29.91"29.91"29.91"29.91"29.91"29.94"29.97"29.97"29.97"29.97"29.97"29.94"29.94"29.91"29.88"
Wind Speed 11.6 mph9.5 mph6.6 mph5.9 mph5.5 mph3.1 mph3.4 mph3.1 mph3 mph3.4 mph3.5 mph4.4 mph4.1 mph3.7 mph3.8 mph4.7 mph6.4 mph8.4 mph9.8 mph10.6 mph11.5 mph12.2 mph13.4 mph12.7 mph11.1 mph9.4 mph8.2 mph6.4 mph5.8 mph5.4 mph5.9 mph5.1 mph4.7 mph4.4 mph4.4 mph4 mph4 mph4 mph3.7 mph3.8 mph3.5 mph3.7 mph4.1 mph4 mph3.8 mph3.3 mph3.5 mph4.1 mph
Wind
Direction
193°
SSW
215°
SW
236°
SW
244°
WSW
214°
SW
134°
SE
147°
SSE
122°
ESE
154°
SSE
175°
S
188°
S
204°
SSW
200°
SSW
194°
SSW
179°
S
211°
SSW
223°
SW
233°
SW
247°
WSW
246°
WSW
247°
WSW
251°
WSW
254°
WSW
262°
W
265°
W
263°
W
257°
WSW
253°
WSW
263°
W
271°
W
310°
NW
324°
NW
344°
NNW
344°
NNW
346°
NNW
350°
N
346°
NNW
347°
NNW
345°
NNW
339°
NNW
332°
NNW
321°
NW
309°
NW
291°
WNW
285°
WNW
265°
W
242°
WSW
220°
SW

Daily Forecast

Date High Low Precip. Humidity
Today
May 26

Rain
76 °F
66 °F
100%
92%
Friday
May 27

Clear
82 °F
64 °F
89%
49%
Saturday
May 28

Clear
85 °F
61 °F
0%
42%
Sunday
May 29

Clear
88 °F
65 °F
0%
39%
Monday
May 30

Rain
92 °F
68 °F
42%
39%
Tuesday
May 31

Rain
91 °F
68 °F
46%
40%
Wednesday
Jun 1

Rain
95 °F
71 °F
55%
32%
Thursday
Jun 2

Rain
95 °F
69 °F
70%
34%
Friday
Jun 3

Rain
95 °F
68 °F
85%
36%
Saturday
Jun 4

Rain
97 °F
71 °F
100%
38%
Sunday
Jun 5

Rain
94 °F
69 °F
100%
43%
Monday
Jun 6

Rain
92 °F
71 °F
85%
47%
Tuesday
Jun 7

Rain
95 °F
73 °F
88%
42%
Wednesday
Jun 8

Clear
97 °F
73 °F
0%
37%
Thursday
Jun 9

Clouds
99 °F
74 °F
0%
34%
Friday
Jun 10

Clouds
100 °F
74 °F
0%
35%

Temperature 8-14 Day Outlook



Precipitation 8-14 Day Outlook




Quick Links
Chattahoochee River Whitewater News
Chattahoochee River Whitewater Photos
Chattahoochee River Whitewater Videos




About Us
Contact Us
Site Map
Search Site
Advertise With Us
   
www.ChattahoocheeRiverWhitewater.com
THE CHATTAHOOCHEE RIVER WHITEWATER WEBSITE

Copyright 2022, Discover Rivers
Privacy    |    Legal